Vorticity
15 15 14 12 10 9 9 9 8 8 8 7 6 5 5 4 4 4 3 4 4 5 6 6 7 7 7 7 6 6 6 6 5 5 6 6 6 7 7 7 7 7 7 6 5 4 3 3 3 2 2 4
14 13 12 11 10 9 9 8 7 6 5 4 4 4 4 4 4 4 5 5 5 6 6 7 7 7 7 7 7 7 7 7 7 7 7 6 6 6 6 6 6 7 7 7 7 6 4 3 3 3 3 3
12 11 11 10 9 8 7 5 4 3 3 3 3 4 4 5 5 5 5 5 6 6 6 6 6 6 7 7 7 8 8 8 8 8 8 7 7 7 7 7 6 7 7 7 8 7 7 5 4 4 3 3
9 9 8 8 7 5 4 3 3 3 3 4 4 4 5 5 6 6 6 6 6 5 6 6 6 6 6 6 6 6 7 7 7 7 7 7 7 7 7 7 7 8 7 7 7 7 7 7 7 6 4 4
7 6 6 5 4 3 3 3 3 4 4 5 5 6 6 6 7 7 7 6 5 5 5 4 4 4 3 4 3 3 4 4 4 4 5 5 5 6 6 6 8 8 8 8 8 7 7 7 7 7 7 6
5 5 4 4 3 3 3 4 4 5 6 6 6 7 7 6 6 5 5 4 4 4 3 3 3 3 3 3 2 2 3 3 3 4 4 5 5 6 6 6 8 8 9 9 9 8 8 8 8 8 8 8
5 5 5 4 4 5 5 6 6 7 7 7 6 6 5 5 4 4 4 4 3 3 3 4 4 4 4 4 4 5 6 6 6 7 7 8 8 8 8 8 8 8 8 9 9 9 9 9 8 8 8 7
6 6 6 6 6 7 7 7 7 7 6 6 6 6 6 6 6 6 5 5 4 4 5 5 5 6 6 6 7 7 8 8 9 9 9 9 9 9 8 8 9 8 9 9 8 9 9 8 9 9 8 8
7 7 7 7 8 8 8 8 7 6 6 6 7 7 8 7 6 6 6 6 6 6 6 6 7 7 7 8 8 8 8 8 8 8 8 9 9 9 9 9 9 9 9 9 9 9 9 9 9 9 9 9
8 8 8 8 8 7 7 6 5 5 6 7 6 6 6 6 6 6 7 7 7 7 7 7 7 7 8 8 8 7 7 8 8 8 8 8 8 8 8 8 8 8 7 7 8 8 8 9 9 9 10 10
8 7 7 6 6 5 5 5 6 7 7 7 6 6 6 7 7 7 7 6 6 6 6 7 7 7 6 6 6 6 7 7 7 8 8 7 7 7 7 7 7 7 7 7 8 7 7 8 8 8 8 9
6 5 5 5 5 6 7 7 7 7 6 6 6 6 6 6 6 6 6 6 6 6 7 7 6 6 6 7 7 7 8 8 7 7 7 7 7 7 7 7 7 7 8 8 8 8 8 8 8 9 9 9
7 7 6 6 7 7 7 7 6 6 6 6 6 6 6 6 6 6 6 6 6 6 6 6 7 7 7 8 8 8 8 8 7 7 7 7 7 7 7 7 7 7 7 7 7 7 7 7 7 6 6 6
7 7 7 7 7 6 6 6 6 6 6 6 6 6 6 5 5 4 5 5 5 6 6 6 7 7 7 7 7 7 7 7 7 7 7 7 7 8 7 7 7 7 6 6 5 5 5 5 4 4 4 4
5 5 6 6 6 6 6 6 6 6 5 5 5 5 5 6 6 6 7 7 7 7 6 6 6 6 7 7 7 6 6 6 6 7 7 7 7 7 6 6 6 5 5 5 5 5 5 5 5 5 5 5
5 6 6 6 6 5 5 5 5 5 6 6 6 7 7 7 7 7 7 6 5 6 6 6 6 7 6 6 6 6 6 6 7 7 7 7 6 5 5 5 5 5 5 6 6 6 6 6 6 7 7 6
6 6 6 5 5 5 5 6 6 7 7 7 7 7 6 6 5 5 4 5 5 6 6 6 6 6 6 6 6 6 7 7 7 6 5 5 5 5 5 6 6 6 6 7 7 7 7 7 8 8 8 8
6 6 6 6 6 6 6 7 7 6 6 6 6 5 4 4 3 4 5 6 6 6 6 6 6 6 6 7 7 7 7 6 5 5 5 5 6 6 6 6 6 6 6 6 7 7 8 9 10 11 11 10
7 6 6 6 6 6 6 6 5 5 5 4 4 3 3 4 4 6 6 7 6 6 6 6 6 7 7 7 6 6 5 5 5 5 5 6 6 5 5 5 5 6 7 8 9 10 12 13 13 14 13 14
7 6 6 6 6 6 6 5 5 5 4 3 3 4 4 6 7 7 7 7 7 7 7 7 7 6 6 5 4 5 4 5 5 5 6 5 5 5 5 6 6 6 8 9 11 12 12 12 11 11 10 11
7 7 7 8 7 6 5 5 4 4 4 4 4 6 7 8 8 8 7 7 7 7 7 6 5 5 4 5 5 6 6 6 6 6 6 6 6 5 5 7 7 8 9 11 12 11 11 10 8 7 7 7
8 8 8 7 6 5 5 5 4 4 5 6 7 8 9 9 8 7 7 7 7 6 6 5 5 6 6 7 7 6 6 5 5 5 6 6 7 7 7 9 9 10 10 10 9 9 8 7 6 5 5 4
8 7 6 5 5 5 4 5 5 6 6 8 9 9 8 7 7 7 6 6 6 5 6 6 7 8 7 6 5 5 5 5 5 7 7 7 9 9 8 10 10 10 10 10 9 8 7 6 5 4 4 4
7 5 4 3 3 3 5 7 7 7 8 8 8 8 7 7 7 6 6 5 4 5 7 7 7 6 5 4 4 5 6 6 6 6 7 7 8 9 8 8 9 9 10 10 9 8 6 5 4 4 4 5
2 2 2 2 2 4 6 8 8 9 9 8 8 8 8 7 6 5 4 5 6 7 7 6 5 4 5 6 6 6 5 5 5 5 7 8 8 9 9 10 11 10 9 8 6 5 4 4 4 5 6 8
0 1 2 3 4 6 8 8 9 9 7 8 8 8 6 5 4 4 5 7 7 6 5 4 4 5 5 5 4 3 3 4 6 7 8 9 10 11 11 10 9 7 5 5 4 4 4 5 6 7 9 12
1 3 3 5 6 8 8 7 7 7 8 9 7 5 4 4 5 7 7 6 4 3 3 3 3 3 3 2 2 3 4 6 6 7 8 10 12 11 9 7 5 4 4 4 4 4 6 6 8 11 12 15
4 5 5 6 7 7 7 7 7 9 9 7 4 4 4 5 6 5 4 2 2 2 2 2 3 3 3 3 4 4 5 5 7 9 11 12 10 8 6 5 4 4 4 5 6 8 11 13 15 18 19 20
6 6 6 7 6 7 7 8 10 10 8 5 5 6 6 5 4 3 2 2 3 3 3 5 4 4 4 4 4 4 5 8 10 12 11 9 7 6 5 4 4 5 8 12 17 20 22 24 26 26 26 26
7 6 6 6 7 8 8 9 9 7 5 5 6 5 5 4 3 3 3 3 4 5 6 5 3 2 2 3 4 6 9 11 12 11 8 7 5 4 3 4 8 13 18 24 28 31 33 35 35 34 33 32
7 6 6 7 7 8 8 9 9 6 5 5 4 3 3 2 2 2 2 4 5 5 4 1 1 2 3 5 7 10 12 12 10 7 5 4 4 5 7 12 17 21 26 29 30 31 32 33 33 34 35 33
Height
5804 5802 5801 5800 5798 5797 5796 5795 5793 5792 5791 5790 5788 5787 5786 5785 5784 5782 5781 5779 5778 5776 5774 5772 5770 5769 5767 5765 5763 5762 5760 5758 5756 5754 5752 5750 5749 5747 5745 5743 5741 5739 5738 5736 5734 5732 5730 5728 5726 5723 5722 5720
5801 5800 5799 5797 5796 5794 5793 5792 5791 5789 5788 5787 5786 5784 5783 5782 5781 5779 5778 5776 5774 5772 5770 5769 5767 5765 5763 5761 5759 5758 5756 5754 5752 5750 5748 5746 5744 5742 5740 5738 5736 5734 5732 5730 5728 5726 5724 5722 5720 5717 5715 5714
5799 5798 5797 5795 5794 5792 5791 5789 5788 5787 5786 5784 5783 5782 5780 5779 5778 5776 5774 5773 5771 5769 5767 5765 5763 5761 5759 5757 5755 5753 5752 5750 5748 5746 5744 5742 5739 5737 5735 5733 5731 5729 5726 5724 5722 5719 5717 5715 5713 5711 5709 5707
5797 5795 5794 5793 5791 5790 5788 5787 5786 5784 5783 5782 5781 5779 5777 5776 5774 5772 5771 5769 5767 5765 5763 5761 5759 5757 5755 5753 5751 5749 5747 5745 5743 5741 5739 5736 5734 5732 5730 5727 5725 5723 5720 5718 5715 5713 5711 5708 5706 5704 5702 5699
5794 5793 5792 5790 5789 5787 5786 5784 5783 5782 5780 5779 5778 5776 5774 5773 5771 5769 5767 5765 5763 5761 5759 5757 5755 5753 5751 5749 5747 5745 5743 5741 5739 5736 5734 5732 5729 5727 5724 5722 5719 5717 5714 5712 5709 5707 5704 5702 5700 5697 5695 5692
5791 5790 5789 5787 5786 5784 5783 5782 5780 5779 5778 5776 5775 5773 5771 5769 5767 5766 5764 5762 5760 5758 5755 5753 5751 5749 5747 5745 5743 5741 5738 5735 5733 5731 5729 5726 5724 5721 5719 5716 5714 5711 5709 5706 5703 5701 5698 5696 5693 5690 5688 5685
5789 5788 5786 5785 5783 5782 5781 5779 5778 5776 5775 5773 5771 5769 5767 5765 5763 5761 5759 5758 5756 5754 5752 5749 5747 5745 5743 5740 5738 5736 5733 5731 5728 5726 5723 5720 5718 5716 5713 5711 5708 5706 5703 5700 5697 5695 5692 5689 5686 5683 5681 5678
5787 5786 5784 5783 5781 5780 5778 5776 5775 5773 5771 5769 5767 5765 5763 5761 5759 5757 5755 5753 5751 5750 5747 5745 5743 5741 5739 5736 5734 5732 5729 5726 5723 5721 5718 5715 5712 5709 5707 5704 5702 5699 5696 5694 5691 5688 5684 5682 5679 5676 5673 5670
5785 5783 5782 5780 5779 5777 5775 5773 5771 5769 5768 5766 5764 5762 5760 5758 5756 5754 5752 5750 5748 5746 5744 5741 5739 5737 5734 5732 5729 5727 5724 5721 5718 5716 5713 5710 5707 5703 5700 5697 5694 5691 5689 5686 5683 5680 5676 5673 5670 5667 5665 5662
5783 5781 5779 5778 5776 5774 5772 5771 5769 5767 5766 5764 5762 5760 5758 5756 5754 5752 5749 5747 5744 5742 5739 5737 5735 5732 5730 5727 5724 5722 5719 5716 5713 5710 5707 5704 5701 5698 5695 5691 5688 5684 5681 5678 5675 5671 5668 5665 5662 5659 5656 5653
5780 5778 5777 5775 5773 5771 5770 5768 5766 5765 5763 5761 5759 5757 5755 5753 5751 5748 5746 5743 5741 5738 5735 5733 5730 5727 5724 5722 5719 5716 5713 5710 5707 5704 5702 5699 5696 5692 5689 5685 5682 5678 5674 5671 5667 5664 5660 5656 5653 5650 5646 5643
5777 5775 5773 5772 5770 5768 5767 5765 5763 5761 5759 5757 5755 5753 5751 5749 5747 5744 5742 5739 5736 5734 5731 5728 5725 5722 5719 5716 5713 5710 5707 5704 5701 5698 5695 5692 5689 5685 5682 5678 5675 5671 5668 5664 5660 5656 5653 5649 5645 5641 5638 5634
5775 5773 5771 5769 5767 5765 5764 5762 5760 5758 5756 5754 5752 5750 5747 5745 5743 5740 5738 5735 5732 5729 5726 5723 5720 5716 5713 5710 5708 5705 5701 5698 5695 5692 5688 5685 5682 5678 5675 5671 5668 5664 5660 5656 5652 5648 5644 5640 5636 5632 5628 5624
5772 5771 5768 5766 5765 5763 5761 5759 5757 5755 5753 5750 5748 5746 5744 5741 5739 5736 5733 5730 5727 5724 5720 5717 5714 5711 5708 5705 5702 5699 5696 5692 5689 5685 5682 5679 5675 5671 5667 5663 5659 5656 5652 5648 5643 5639 5635 5631 5627 5623 5618 5614
5770 5768 5766 5764 5762 5760 5758 5755 5753 5751 5749 5747 5744 5742 5739 5736 5733 5730 5727 5724 5721 5718 5715 5711 5708 5705 5702 5699 5696 5693 5689 5686 5682 5678 5674 5671 5667 5664 5660 5656 5652 5648 5644 5640 5635 5631 5626 5622 5617 5613 5608 5602
5767 5765 5763 5761 5759 5756 5754 5752 5750 5747 5745 5742 5740 5737 5734 5731 5727 5724 5721 5718 5715 5712 5709 5706 5702 5699 5696 5693 5689 5686 5682 5679 5675 5671 5667 5663 5660 5656 5652 5649 5645 5640 5636 5632 5627 5621 5616 5612 5607 5601 5596 5591
5764 5762 5759 5757 5755 5753 5750 5748 5745 5742 5740 5737 5734 5731 5728 5725 5722 5719 5716 5713 5710 5707 5703 5700 5697 5693 5690 5686 5683 5679 5676 5672 5668 5664 5660 5656 5652 5648 5644 5640 5636 5631 5626 5621 5616 5611 5606 5601 5595 5590 5584 5578
5761 5759 5756 5754 5751 5749 5746 5744 5741 5738 5735 5733 5730 5727 5724 5721 5718 5715 5711 5708 5705 5701 5698 5694 5691 5687 5684 5680 5677 5674 5670 5666 5662 5657 5654 5650 5645 5640 5635 5631 5626 5622 5617 5611 5605 5599 5594 5588 5583 5577 5571 5565
5758 5755 5753 5751 5748 5746 5743 5741 5738 5735 5732 5730 5727 5724 5720 5717 5714 5710 5707 5703 5700 5696 5693 5689 5686 5682 5679 5675 5671 5668 5664 5659 5654 5650 5646 5641 5636 5631 5626 5622 5616 5611 5606 5600 5593 5587 5580 5574 5569 5563 5556 5552
5755 5753 5750 5748 5746 5743 5741 5738 5735 5732 5730 5727 5724 5720 5717 5713 5710 5706 5703 5699 5696 5692 5689 5685 5681 5677 5673 5669 5665 5661 5656 5651 5646 5642 5637 5631 5626 5622 5617 5612 5606 5600 5594 5587 5580 5573 5567 5559 5553 5547 5541 5537
5752 5750 5748 5746 5743 5741 5738 5735 5732 5729 5726 5723 5720 5717 5713 5710 5706 5703 5699 5695 5692 5688 5684 5680 5676 5672 5667 5663 5658 5654 5649 5644 5638 5634 5629 5622 5616 5610 5606 5600 5593 5588 5581 5575 5569 5561 5554 5547 5541 5535 5529 5522
5750 5747 5745 5743 5741 5738 5735 5732 5729 5726 5722 5719 5716 5713 5710 5706 5702 5699 5695 5692 5688 5684 5680 5675 5671 5666 5661 5657 5652 5647 5642 5637 5631 5625 5619 5612 5605 5597 5592 5588 5582 5577 5572 5565 5560 5553 5545 5538 5531 5525 5518 5509
5747 5744 5742 5740 5738 5735 5732 5728 5724 5721 5718 5715 5712 5709 5706 5702 5698 5695 5691 5687 5683 5678 5674 5669 5665 5660 5655 5650 5645 5640 5634 5628 5621 5614 5607 5600 5594 5587 5580 5576 5571 5566 5562 5556 5549 5543 5535 5528 5520 5513 5505 5496
5744 5741 5739 5736 5733 5730 5726 5723 5720 5716 5714 5711 5708 5705 5701 5698 5694 5690 5686 5682 5677 5673 5668 5663 5658 5653 5648 5642 5637 5630 5624 5617 5610 5604 5598 5591 5585 5579 5570 5565 5560 5553 5550 5545 5538 5531 5523 5514 5507 5500 5491 5480
5740 5737 5734 5731 5728 5725 5723 5720 5717 5714 5710 5707 5704 5701 5697 5693 5689 5685 5680 5676 5671 5666 5660 5655 5650 5645 5639 5633 5626 5619 5612 5606 5600 5594 5588 5581 5573 5567 5559 5552 5547 5541 5536 5531 5526 5520 5513 5503 5492 5484 5475 5464
5737 5734 5731 5729 5726 5723 5720 5717 5714 5711 5708 5704 5700 5695 5691 5687 5682 5678 5673 5668 5663 5658 5653 5648 5642 5636 5630 5623 5615 5608 5602 5595 5589 5582 5576 5570 5562 5554 5544 5536 5531 5525 5520 5515 5510 5504 5499 5493 5483 5472 5460 5448
5734 5731 5729 5726 5723 5719 5716 5713 5710 5706 5703 5698 5693 5689 5684 5680 5675 5670 5666 5661 5656 5651 5646 5640 5633 5626 5619 5612 5605 5599 5592 5585 5578 5571 5564 5557 5551 5543 5533 5522 5513 5507 5501 5496 5492 5487 5479 5474 5468 5460 5451 5438
5730 5728 5725 5721 5718 5714 5711 5707 5703 5699 5695 5691 5686 5682 5678 5674 5669 5665 5660 5655 5649 5643 5637 5630 5623 5616 5609 5603 5596 5589 5582 5575 5568 5561 5553 5545 5538 5531 5523 5512 5500 5491 5482 5474 5469 5466 5460 5453 5447 5440 5435 5429
5727 5723 5720 5716 5712 5708 5704 5700 5696 5693 5689 5685 5681 5677 5673 5669 5664 5659 5653 5647 5641 5635 5628 5622 5614 5608 5601 5594 5588 5580 5572 5565 5557 5548 5541 5533 5525 5517 5509 5500 5488 5476 5464 5453 5444 5438 5433 5429 5425 5418 5412 5410
5722 5718 5714 5711 5707 5703 5700 5696 5692 5689 5685 5681 5677 5673 5668 5663 5658 5652 5646 5640 5634 5628 5620 5614 5607 5600 5593 5586 5579 5571 5562 5553 5545 5536 5528 5520 5513 5504 5495 5486 5475 5463 5449 5436 5424 5414 5406 5399 5396 5394 5390 5386
5718 5714 5710 5706 5703 5699 5696 5692 5689 5685 5681 5677 5672 5667 5662 5656 5651 5645 5639 5633 5627 5620 5613 5606 5599 5592 5584 5577 5569 5560 5552 5543 5534 5525 5516 5507 5499 5490 5480 5469 5459 5449 5437 5424 5411 5399 5390 5380 5372 5367 5365 5362